Groton, CT

9:32 PM EDT on April 19, 2018 (GMT -0400)
Groton-New London

Weather History for KGON - January, 2013

Change the Weather History Date:

Monday, January 14, 2013

  Actual Average Record
Temperature  
Mean Temperature 49 °F -  
Max Temperature 59 °F 36 °F 59 °F (1972)
Min Temperature 37 °F 18 °F -2 °F (1981)
Degree Days  
Heating Degree Days 16    
Moisture  
Dew Point 46 °F    
Average Humidity 90    
Maximum Humidity 100    
Minimum Humidity 48    
Precipitation  
Precipitation 0.00 in - - ()
Sea Level Pressure  
Sea Level Pressure 30.04 in    
Wind  
Wind Speed 6 mph (WSW)    
Max Wind Speed 16 mph    
Max Gust Speed 22 mph    
Visibility 4 miles    
Events Fog , Rain    
Averages and records for this station are not official NWS values.
T = Trace of Precipitation, MM = Missing Value Source: NWS Daily Summary

Daily Weather History Graph

Daily Weather History Graph

Search for Another Location

Airport or City:

Trip Planner

Search our weather history database for the weather conditions in past years. The results will help you decide how hot, cold, wet, or windy it might be!

Date:

Astronomy

Jan. 14, 2013 Rise Set
Actual Time 7:12 AM EST 4:42 PM EST
Civil Twilight 6:41 AM EST 5:13 PM EST
Nautical Twilight 6:07 AM EST 5:47 PM EST
Astronomical Twilight 5:34 AM EST 6:20 PM EST
Moon 8:41 AM EST (1/14) 8:28 PM EST (1/14)
Length of Visible Light 10h 31m
Length of Day
9h 30m
Waxing Crescent, 11% of the Moon is Illuminated
Jan 14
Waxing Crescent
Jan 18
First Quarter
Jan 26
Full
Feb 3
Last Quarter
Feb 10
New

Hourly Weather History & Observations

Time (EST) Temp. Windchill Dew Point Humidity Pressure Visibility Wind Dir Wind Speed Gust Speed Precip Events Conditions
12:09 AM 48.2 °F - 48.2 °F 100% 30.02 in 0.5 mi SSE 4.6 mph - N/A Fog Fog
12:39 AM 48.2 °F - 48.2 °F 100% 30.02 in 0.2 mi SSE 5.8 mph - N/A Fog Fog
12:47 AM 48.2 °F - 48.2 °F 100% 30.01 in 0.2 mi SSE 6.9 mph - N/A Fog Fog
12:56 AM 46.9 °F - 46.9 °F 100% 30.01 in 0.2 mi South 8.1 mph - N/A Fog Fog
1:38 AM 46.4 °F 45.2 °F 46.4 °F 100% 30.02 in 0.5 mi SSW 3.5 mph - N/A Fog Fog
1:56 AM 46.0 °F 44.8 °F 46.0 °F 100% 30.03 in 0.5 mi SSW 3.5 mph - N/A Fog Fog
2:38 AM 48.2 °F - 48.2 °F 100% 30.03 in 1.0 mi SW 6.9 mph - N/A   Overcast
2:52 AM 46.4 °F 45.2 °F 46.4 °F 100% 30.02 in 0.8 mi WSW 3.5 mph - N/A   Mist
2:56 AM 46.9 °F - 46.9 °F 100% 30.02 in 0.8 mi WSW 5.8 mph - N/A   Overcast
3:07 AM 48.2 °F - 48.2 °F 100% 30.02 in 1.5 mi Variable 3.5 mph - N/A   Overcast
3:27 AM 48.2 °F - 48.2 °F 100% 30.01 in 6.0 mi Calm Calm - N/A   Overcast
3:56 AM 46.9 °F - 46.9 °F 100% 30.00 in 5.0 mi Calm Calm - N/A   Overcast
4:32 AM 48.2 °F - 48.2 °F 100% 29.99 in 1.8 mi SW 3.5 mph - N/A   Overcast
4:56 AM 48.0 °F - 48.0 °F 100% 30.00 in 1.2 mi WSW 5.8 mph - N/A   Overcast
5:07 AM 48.2 °F - 48.2 °F 100% 30.00 in 0.8 mi West 4.6 mph - N/A   Mist
5:15 AM 48.2 °F - 48.2 °F 100% 30.01 in 1.8 mi Calm Calm - N/A   Overcast
5:45 AM 48.2 °F - 48.2 °F 100% 30.00 in 0.8 mi South 4.6 mph - N/A   Overcast
5:56 AM 48.0 °F - 48.0 °F 100% 30.00 in 0.5 mi Calm Calm - N/A Fog Fog
6:29 AM 46.4 °F 44.3 °F 46.4 °F 100% 30.00 in 0.2 mi SSW 4.6 mph - N/A Fog Fog
6:39 AM 46.4 °F 45.2 °F 46.4 °F 100% 29.99 in 0.2 mi South 3.5 mph - N/A Fog Fog
6:56 AM 46.4 °F 44.3 °F 46.4 °F 100% 29.98 in 0.2 mi SE 4.6 mph - N/A Fog Fog
7:11 AM 48.2 °F - 48.2 °F 100% 29.97 in 0.2 mi SSE 3.5 mph - N/A Fog Fog
7:23 AM 46.4 °F 42.9 °F 46.4 °F 100% 29.96 in 0.2 mi SSE 6.9 mph - N/A Fog Fog
7:35 AM 48.2 °F - 48.2 °F 100% 29.96 in 0.2 mi SSE 10.4 mph - N/A Fog Fog
7:51 AM 46.4 °F 40.7 °F 46.4 °F 100% 29.96 in 0.2 mi SSE 12.7 mph - N/A Fog Fog
7:56 AM 46.9 °F - 46.9 °F 100% 29.99 in 0.2 mi Variable 4.6 mph - 0.00 in Fog , Rain Light Rain
8:18 AM 48.2 °F - 48.2 °F 100% 30.03 in 0.5 mi West 6.9 mph 21.9 mph 0.00 in Fog Fog
8:56 AM 50.0 °F - 50.0 °F 100% 30.04 in 0.5 mi West 4.6 mph - 0.00 in Fog Fog
9:12 AM 50.0 °F - 50.0 °F 100% 30.03 in 1.0 mi West 3.5 mph - N/A   Overcast
9:36 AM 50.0 °F - 50.0 °F 100% 30.02 in 0.2 mi Variable 3.5 mph - N/A Fog Fog
9:51 AM 50.0 °F - 50.0 °F 100% 30.03 in 0.5 mi SSW 8.1 mph - N/A Fog Fog
9:56 AM 48.0 °F - 48.0 °F 100% 30.02 in 0.2 mi SSW 9.2 mph - N/A Fog Fog
10:54 AM 48.2 °F - 48.2 °F 100% 30.03 in 0.5 mi SSW 3.5 mph - N/A Fog Fog
10:56 AM 50.0 °F - 50.0 °F 100% 30.03 in 0.5 mi Calm Calm - N/A Fog Fog
11:07 AM 51.8 °F - 51.8 °F 100% 30.03 in 1.8 mi WSW 3.5 mph - N/A   Overcast
11:12 AM 53.6 °F - 53.6 °F 100% 30.02 in 3.0 mi WSW 4.6 mph - N/A   Overcast
11:28 AM 53.6 °F - 53.6 °F 100% 30.02 in 4.0 mi WNW 8.1 mph - N/A   Overcast
11:56 AM 55.9 °F - 54.0 °F 93% 30.02 in 8.0 mi NW 8.1 mph - N/A   Overcast
12:23 PM 57.2 °F - 53.6 °F 88% 30.01 in 9.0 mi NNW 5.8 mph - N/A   Scattered Clouds
12:56 PM 55.9 °F - 53.1 °F 90% 30.01 in 8.0 mi SW 5.8 mph - N/A   Clear
1:56 PM 57.2 °F - 51.8 °F 82% 30.03 in 10.0 mi NW 6.9 mph - N/A   Scattered Clouds
2:05 PM 59.0 °F - 51.8 °F 77% 30.05 in 10.0 mi NW 9.2 mph - N/A   Mostly Cloudy
2:56 PM 57.0 °F - 46.9 °F 69% 30.08 in 10.0 mi NW 11.5 mph - N/A   Mostly Cloudy
3:03 PM 57.2 °F - 46.4 °F 67% 30.07 in 10.0 mi NNW 9.2 mph - N/A   Mostly Cloudy
3:56 PM 53.1 °F - 41.0 °F 64% 30.10 in 10.0 mi NNW 15.0 mph 20.7 mph N/A   Mostly Cloudy
4:56 PM 51.1 °F - 33.1 °F 50% 30.14 in 10.0 mi NNW 12.7 mph 18.4 mph N/A   Overcast
5:56 PM 48.9 °F - 30.0 °F 48% 30.14 in 10.0 mi NNW 10.4 mph - N/A   Mostly Cloudy
6:56 PM 46.9 °F - 28.9 °F 50% 30.17 in 10.0 mi NNW 6.9 mph - N/A   Overcast
7:56 PM 46.0 °F 39.9 °F 28.9 °F 51% 30.20 in 10.0 mi NW 13.8 mph 19.6 mph N/A   Overcast
8:56 PM 44.1 °F 36.8 °F 28.0 °F 53% 30.22 in 10.0 mi NNW 16.1 mph 20.7 mph N/A   Overcast
9:56 PM 43.0 °F 36.0 °F 30.0 °F 60% 30.23 in 9.0 mi NNW 13.8 mph 21.9 mph 0.00 in Rain Light Rain
10:56 PM 39.9 °F 32.1 °F 30.9 °F 70% 30.24 in 10.0 mi NNW 13.8 mph - 0.00 in   Overcast
11:56 PM 37.9 °F 30.5 °F 32.0 °F 79% 30.25 in 10.0 mi North 11.5 mph - 0.00 in Rain Light Rain